{"data":{"norad_id":65924,"intl_designator":"2025-225Q","name":"STARLINK-34994","alt_names":[],"object_type":"PAYLOAD","status":"ACTIVE","operator":null,"country":"US","launch_date":"2025-10-08","launch_site_code":"AFWTR","launch_vehicle":null,"mission":null,"orbit_class":"UNKNOWN","rcs_meters":null,"size_class":null,"mass_kg":null,"dimensions":null,"purposes":["comms"],"wikipedia_slug":null,"has_3d_model":false,"image_url":null,"decayed_at":null,"tle_current":{"epoch":"2026-09-20T12:13:50.477664Z","epoch_age_seconds":102307,"freshness":"FRESH","line1":"1 65924U 25225Q   26263.50961201  .00018607  00000+0  56041-3 0  9995","line2":"2 65924  53.1597 337.3750 0001154  69.8333 290.2794 15.34402952 54286","mean_motion":15.34402952,"eccentricity":0.0001154,"inclination_deg":53.1597,"raan_deg":337.375,"arg_perigee_deg":69.8333,"mean_anomaly_deg":290.2794,"bstar":0.00056041,"rev_number":5428,"period_min":93.847577529947,"perigee_km":461.90503430386,"apogee_km":463.48389820627,"semimajor_km":6840.8314662551,"source":"CELESTRAK","updated_at":"2026-09-21T09:00:35.765081Z"}}}